Mount Holly, NJ

11:23 PM EDT on March 24, 2017 (GMT -0400)
South Jersey Regional

Weather History for KVAY - May, 2013

Change the Weather History Date:

Tuesday, May 28, 2013

  Actual Average (KPNE) Record (KPNE)
Temperature  
Mean Temperature 58 °F -  
Max Temperature 64 °F 72 °F 91 °F (2012)
Min Temperature 52 °F 53 °F 43 °F (1997)
Degree Days  
Heating Degree Days 7    
Growing Degree Days 8 (Base 50)    
Moisture  
Dew Point 58 °F    
Average Humidity 90    
Maximum Humidity 100    
Minimum Humidity 70    
Precipitation  
Precipitation 0.18 in - - ()
Sea Level Pressure  
Sea Level Pressure 30.17 in    
Wind  
Wind Speed 1 mph (SE)    
Max Wind Speed 7 mph    
Max Gust Speed -    
Visibility 6 miles    
Events Rain    
Averages and records for this station are not official NWS values.
T = Trace of Precipitation, MM = Missing Value Source: NWS Daily Summary

Daily Weather History Graph

Daily Weather History Graph

Search for Another Location

Airport or City:

Trip Planner

Search our weather history database for the weather conditions in past years. The results will help you decide how hot, cold, wet, or windy it might be!

Date:

Astronomy

May. 28, 2013 Rise Set
Actual Time 5:34 AM EDT 8:19 PM EDT
Civil Twilight 5:02 AM EDT 8:51 PM EDT
Nautical Twilight 4:23 AM EDT 9:31 PM EDT
Astronomical Twilight 3:37 AM EDT 10:16 PM EDT
Moon 11:41 PM EDT (5/28) 9:19 AM EDT (5/28)
Length of Visible Light 15h 48m
Length of Day
14h 44m
Waning Gibbous, 83% of the Moon is Illuminated
May 28
Waning Gibbous
May 31
Last Quarter
Jun 8
New
Jun 16
First Quarter
Jun 23
Full

Hourly Weather History & Observations

Time (EDT) Temp. Dew Point Humidity Pressure Visibility Wind Dir Wind Speed Gust Speed Precip Events Conditions
12:54 AM 54.0 °F 46.9 °F 77% 30.22 in 10.0 mi Calm Calm - N/A   Clear
1:54 AM 52.0 °F 46.9 °F 83% 30.21 in 10.0 mi Calm Calm - N/A   Clear
2:54 AM 52.0 °F 46.9 °F 83% 30.21 in 10.0 mi Calm Calm - N/A   Clear
3:54 AM 52.0 °F 48.0 °F 86% 30.20 in 10.0 mi Calm Calm - N/A   Partly Cloudy
4:54 AM 53.1 °F 48.9 °F 86% 30.19 in 10.0 mi Calm Calm - N/A   Mostly Cloudy
5:54 AM 53.1 °F 48.9 °F 86% 30.20 in 10.0 mi Calm Calm - N/A   Clear
6:54 AM 55.9 °F 51.1 °F 84% 30.21 in 10.0 mi Calm Calm - N/A   Partly Cloudy
7:54 AM 57.9 °F 53.1 °F 84% 30.21 in 10.0 mi Calm Calm - N/A   Overcast
8:54 AM 62.1 °F 52.0 °F 70% 30.22 in 10.0 mi Calm Calm - N/A   Overcast
9:54 AM 63.0 °F 54.0 °F 72% 30.22 in 10.0 mi Calm Calm - 0.00 in Rain Light Rain
10:54 AM 62.1 °F 55.9 °F 80% 30.22 in 8.0 mi ESE 3.5 mph - 0.01 in Rain Light Rain
11:54 AM 62.1 °F 57.9 °F 86% 30.21 in 7.0 mi Calm Calm - 0.02 in Rain Light Rain
12:47 PM 62.6 °F 60.8 °F 94% 30.20 in 5.0 mi Calm Calm - 0.03 in Rain Light Rain
12:54 PM 62.1 °F 60.1 °F 93% 30.19 in 4.0 mi ESE 3.5 mph - 0.04 in Rain Rain
1:33 PM 62.6 °F 60.8 °F 94% 30.17 in 5.0 mi Variable 3.5 mph - 0.02 in Rain Light Rain
1:54 PM 63.0 °F 61.0 °F 93% 30.17 in 5.0 mi SE 4.6 mph - 0.03 in Rain Light Rain
2:08 PM 62.6 °F 60.8 °F 94% 30.17 in 6.0 mi Variable 4.6 mph - 0.01 in Rain Light Rain
2:16 PM 62.6 °F 60.8 °F 94% 30.17 in 7.0 mi SSE 5.8 mph - 0.01 in Rain Light Rain
2:31 PM 62.6 °F 60.8 °F 94% 30.17 in 3.0 mi Variable 3.5 mph - 0.02 in Rain Rain
2:38 PM 62.6 °F 60.8 °F 94% 30.16 in 2.0 mi Variable 5.8 mph - 0.03 in Rain Rain
2:44 PM 62.6 °F 60.8 °F 94% 30.16 in 3.0 mi Variable 5.8 mph - 0.04 in Rain Light Rain
2:54 PM 63.0 °F 61.0 °F 93% 30.15 in 4.0 mi SSE 6.9 mph - 0.05 in Rain Light Rain
3:06 PM 62.6 °F 60.8 °F 94% 30.16 in 5.0 mi Calm Calm - 0.00 in Rain Light Rain
3:54 PM 63.0 °F 61.0 °F 93% 30.15 in 5.0 mi Calm Calm - 0.02 in Rain Light Rain
4:54 PM 64.0 °F 62.1 °F 93% 30.14 in 6.0 mi SSE 4.6 mph - 0.01 in   Overcast
5:54 PM 64.0 °F 62.1 °F 93% 30.14 in 6.0 mi Calm Calm - 0.00 in   Overcast
6:03 PM 64.4 °F 62.6 °F 94% 30.14 in 5.0 mi Calm Calm - N/A   Overcast
7:14 PM 64.4 °F 62.6 °F 94% 30.13 in 4.0 mi Calm Calm - N/A   Overcast
7:49 PM 62.6 °F 62.6 °F 100% 30.13 in 3.0 mi Calm Calm - 0.00 in   Overcast
7:54 PM 63.0 °F 62.1 °F 97% 30.13 in 4.0 mi Calm Calm - 0.00 in   Mostly Cloudy
8:54 PM 63.0 °F 61.0 °F 93% 30.12 in 4.0 mi Calm Calm - N/A   Overcast
9:54 PM 63.0 °F 61.0 °F 93% 30.12 in 4.0 mi Calm Calm - N/A   Overcast
10:07 PM 62.6 °F 60.8 °F 94% 30.12 in 4.0 mi Calm Calm - N/A   Overcast
10:54 PM 62.1 °F 61.0 °F 96% 30.13 in 5.0 mi Calm Calm - N/A   Overcast
11:04 PM 62.6 °F 60.8 °F 94% 30.13 in 5.0 mi Calm Calm - N/A   Overcast
11:54 PM 62.1 °F 60.1 °F 93% 30.12 in 5.0 mi Calm Calm - N/A   Scattered Clouds